Lake Charles Regional, LA

5:15 AM CST on December 13, 2017 (GMT -0600)
Lake Charles Regional

Weather History for KLCH - September, 2014

Change the Weather History Date:

Saturday, September 13, 2014

  Actual Average Record
Temperature  
Mean Temperature 73 °F 80 °F  
Max Temperature 78 °F 89 °F 99 °F (1929)
Min Temperature 67 °F 70 °F 50 °F (1940)
Degree Days  
Heating Degree Days 0 0  
Month to date heating degree days 0 0  
Since 1 July heating degree days 0 0  
Cooling Degree Days 8 14  
Month to date cooling degree days 226 205  
Year to date cooling degree days 2236 2334  
Growing Degree Days 23 (Base 50)    
Moisture  
Dew Point 68 °F    
Average Humidity 82    
Maximum Humidity 94    
Minimum Humidity 69    
Precipitation  
Precipitation 0.00 in 0.19 in 3.00 in (1916)
Month to date precipitation 2.90 2.51  
Year to date precipitation 54.97 40.73  
Snow  
Snow 0.00 in 0.00 in 0.00 in ()
Month to date snowfall 0.0 0.0  
Since 1 July snowfall 0.0 0.0  
Since 1 September snowfall 0.0 0.0  
Snow Depth 0.00 in    
Sea Level Pressure  
Sea Level Pressure 30.10 in    
Wind  
Wind Speed 12 mph (NNE)    
Max Wind Speed 21 mph    
Max Gust Speed 25 mph    
Visibility 10 miles    
Events      
T = Trace of Precipitation, MM = Missing Value Source: NWS Daily Summary

Daily Weather History Graph

Daily Weather History Graph

Search for Another Location

Airport or City:

Trip Planner

Search our weather history database for the weather conditions in past years. The results will help you decide how hot, cold, wet, or windy it might be!

Date:

Astronomy

Sep. 13, 2014 Rise Set
Actual Time 6:56 AM CDT 7:20 PM CDT
Civil Twilight 6:32 AM CDT 7:44 PM CDT
Nautical Twilight 6:04 AM CDT 8:12 PM CDT
Astronomical Twilight 5:35 AM CDT 8:41 PM CDT
Moon 10:49 PM CDT 11:41 AM CDT
Length of Visible Light 13h 12m
Length of Day
12h 24m
Waning Gibbous, 74% of the Moon is Illuminated
Sep 13
Waning Gibbous
Sep 15
Last Quarter
Sep 24
New
Oct 1
First Quarter
Oct 8
Full

Hourly Weather History & Observations

Time (CDT) Temp. Dew Point Humidity Pressure Visibility Wind Dir Wind Speed Gust Speed Precip Events Conditions
12:53 AM 75.0 °F 72.0 °F 90% 30.05 in 10.0 mi NNE 6.9 mph - N/A   Clear
1:53 AM 75.0 °F 72.0 °F 90% 30.03 in 10.0 mi NE 8.1 mph - N/A   Partly Cloudy
2:08 AM 75.0 °F 72.0 °F 90% 30.00 in 10.0 mi NE 8.1 mph - N/A   Mostly Cloudy
2:53 AM 75.0 °F 73.0 °F 94% 30.03 in 10.0 mi NE 8.1 mph - N/A   Overcast
3:53 AM 75.9 °F 73.0 °F 91% 30.04 in 10.0 mi NE 8.1 mph - N/A   Overcast
4:14 AM 75.9 °F 72.0 °F 87% 30.01 in 10.0 mi NNE 11.5 mph - N/A   Overcast
4:53 AM 75.9 °F 72.0 °F 87% 30.04 in 10.0 mi NNE 9.2 mph - N/A   Overcast
5:09 AM 75.0 °F 72.0 °F 90% 30.02 in 10.0 mi NNE 15.0 mph 20.7 mph N/A   Overcast
5:53 AM 73.9 °F 71.1 °F 91% 30.06 in 7.0 mi NNE 12.7 mph - N/A   Overcast
6:53 AM 72.0 °F 70.0 °F 93% 30.08 in 10.0 mi NNE 13.8 mph - 0.00 in   Overcast
7:24 AM 72.0 °F 68.0 °F 87% 30.07 in 10.0 mi NE 13.8 mph - N/A   Overcast
7:39 AM 71.1 °F 68.0 °F 90% 30.07 in 10.0 mi NE 13.8 mph - N/A   Overcast
7:53 AM 71.1 °F 68.0 °F 90% 30.10 in 10.0 mi NE 16.1 mph - N/A   Overcast
8:53 AM 70.0 °F 66.9 °F 90% 30.12 in 10.0 mi NNE 12.7 mph - N/A   Overcast
9:53 AM 69.1 °F 66.0 °F 90% 30.14 in 10.0 mi NE 12.7 mph - N/A   Overcast
10:53 AM 71.1 °F 66.0 °F 84% 30.15 in 10.0 mi NNE 13.8 mph - N/A   Overcast
11:53 AM 73.0 °F 66.0 °F 79% 30.14 in 10.0 mi NNE 16.1 mph - N/A   Overcast
12:04 PM 73.0 °F 66.0 °F 79% 30.12 in 10.0 mi NNE 13.8 mph - N/A   Overcast
12:53 PM 73.9 °F 66.0 °F 76% 30.13 in 10.0 mi North 12.7 mph 20.7 mph N/A   Overcast
1:14 PM 75.9 °F 66.9 °F 74% 30.11 in 10.0 mi NE 17.3 mph - N/A   Overcast
1:26 PM 77.0 °F 66.9 °F 71% 30.10 in 10.0 mi NNE 11.5 mph - N/A   Overcast
1:53 PM 75.9 °F 66.9 °F 74% 30.13 in 10.0 mi NNE 12.7 mph - N/A   Mostly Cloudy
2:53 PM 77.0 °F 66.9 °F 71% 30.11 in 10.0 mi NNE 13.8 mph - N/A   Overcast
3:22 PM 75.9 °F 66.9 °F 74% 30.08 in 10.0 mi NNE 10.4 mph - N/A   Overcast
3:53 PM 77.0 °F 68.0 °F 74% 30.10 in 10.0 mi NNE 15.0 mph - N/A   Overcast
4:12 PM 78.1 °F 68.0 °F 71% 30.07 in 10.0 mi NNE 13.8 mph - N/A   Overcast
4:35 PM 77.0 °F 68.0 °F 74% 30.06 in 10.0 mi NNE 13.8 mph - N/A   Overcast
4:53 PM 75.9 °F 66.9 °F 74% 30.09 in 10.0 mi NNE 11.5 mph - N/A   Overcast
5:53 PM 73.0 °F 66.0 °F 79% 30.11 in 10.0 mi NNE 13.8 mph - N/A   Overcast
6:42 PM 71.1 °F 64.9 °F 81% 30.09 in 9.0 mi NNE 11.5 mph - N/A   Overcast
6:53 PM 71.1 °F 64.9 °F 81% 30.11 in 9.0 mi North 11.5 mph - N/A   Overcast
7:53 PM 70.0 °F 64.0 °F 81% 30.12 in 9.0 mi NNE 11.5 mph - N/A   Overcast
8:53 PM 69.1 °F 64.0 °F 84% 30.16 in 8.0 mi NNE 12.7 mph - N/A   Overcast
9:53 PM 68.0 °F 64.0 °F 87% 30.17 in 9.0 mi NNE 11.5 mph - N/A   Overcast
10:17 PM 68.0 °F 63.0 °F 84% 30.14 in 10.0 mi NNE 11.5 mph - N/A   Overcast
10:53 PM 68.0 °F 63.0 °F 84% 30.17 in 9.0 mi NNE 11.5 mph - N/A   Overcast
11:53 PM 68.0 °F 63.0 °F 84% 30.15 in 8.0 mi NE 12.7 mph - N/A   Overcast